Year,Month,Day,Hour,Minute,Value (Times are PST for temperature in C)
2018,10,19,00,00,6.30
2018,10,19,00,01,6.20
2018,10,19,00,02,6.20
2018,10,19,00,03,6.20
2018,10,19,00,04,6.20
2018,10,19,00,05,6.20
2018,10,19,00,06,6.20
2018,10,19,00,07,6.20
2018,10,19,00,08,6.20
2018,10,19,00,09,6.20
2018,10,19,00,10,6.10
2018,10,19,00,11,6.10
2018,10,19,00,12,6.10
2018,10,19,00,13,6.10
2018,10,19,00,14,6.10
2018,10,19,00,15,6.10
2018,10,19,00,16,6.00
2018,10,19,00,17,6.00
2018,10,19,00,18,6.00
2018,10,19,00,19,5.90
2018,10,19,00,20,5.90
2018,10,19,00,21,5.90
2018,10,19,00,22,5.90
2018,10,19,00,23,5.90
2018,10,19,00,24,5.90
2018,10,19,00,25,5.90
2018,10,19,00,26,5.90
2018,10,19,00,27,6.00
2018,10,19,00,28,6.10
2018,10,19,00,29,6.10
2018,10,19,00,30,6.20
2018,10,19,00,31,6.30
2018,10,19,00,32,6.40
2018,10,19,00,33,6.40
2018,10,19,00,34,6.40
2018,10,19,00,35,6.40
2018,10,19,00,36,6.30
2018,10,19,00,37,6.30
2018,10,19,00,38,6.30
2018,10,19,00,39,6.20
2018,10,19,00,40,6.20
2018,10,19,00,41,6.10
2018,10,19,00,42,6.10
2018,10,19,00,43,6.00
2018,10,19,00,44,6.00
2018,10,19,00,45,5.90
2018,10,19,00,46,5.90
2018,10,19,00,47,5.80
2018,10,19,00,48,5.80
2018,10,19,00,49,5.80
2018,10,19,00,50,5.80
2018,10,19,00,51,5.80
2018,10,19,00,52,5.80
2018,10,19,00,53,5.80
2018,10,19,00,54,5.80
2018,10,19,00,55,5.80
2018,10,19,00,56,5.80
2018,10,19,00,57,5.80
2018,10,19,00,58,5.80
2018,10,19,00,59,5.80
2018,10,19,01,00,5.80
2018,10,19,01,01,5.80
2018,10,19,01,02,5.80
2018,10,19,01,03,5.80
2018,10,19,01,04,5.80
2018,10,19,01,05,5.80
2018,10,19,01,06,5.80
2018,10,19,01,07,5.80
2018,10,19,01,08,5.80
2018,10,19,01,09,5.80
2018,10,19,01,10,5.80
2018,10,19,01,11,5.80
2018,10,19,01,12,5.80
2018,10,19,01,13,5.80
2018,10,19,01,14,5.80
2018,10,19,01,15,5.80
2018,10,19,01,16,5.80
2018,10,19,01,17,5.80
2018,10,19,01,18,5.80
2018,10,19,01,19,5.70
2018,10,19,01,20,5.70
2018,10,19,01,21,5.70
2018,10,19,01,22,5.60
2018,10,19,01,23,5.60
2018,10,19,01,24,5.60
2018,10,19,01,25,5.60
2018,10,19,01,26,5.60
2018,10,19,01,27,5.50
2018,10,19,01,28,5.50
2018,10,19,01,29,5.50
2018,10,19,01,30,5.40
2018,10,19,01,31,5.40
2018,10,19,01,32,5.40
2018,10,19,01,33,5.40
2018,10,19,01,34,5.40
2018,10,19,01,35,5.40
2018,10,19,01,36,5.40
2018,10,19,01,37,5.40
2018,10,19,01,38,5.40
2018,10,19,01,39,5.30
2018,10,19,01,40,5.30
2018,10,19,01,41,5.30
2018,10,19,01,42,5.30
2018,10,19,01,43,5.30
2018,10,19,01,44,5.30
2018,10,19,01,45,5.30
2018,10,19,01,46,5.30
2018,10,19,01,47,5.30
2018,10,19,01,48,5.30
2018,10,19,01,49,5.20
2018,10,19,01,50,5.20
2018,10,19,01,51,5.20
2018,10,19,01,52,5.20
2018,10,19,01,53,5.20
2018,10,19,01,54,5.20
2018,10,19,01,55,5.10
2018,10,19,01,56,5.10
2018,10,19,01,57,5.10
2018,10,19,01,58,5.10
2018,10,19,01,59,5.10
2018,10,19,02,00,5.10
2018,10,19,02,01,5.10
2018,10,19,02,02,5.10
2018,10,19,02,03,5.10
2018,10,19,02,04,5.10
2018,10,19,02,05,5.10
2018,10,19,02,06,5.10
2018,10,19,02,07,5.10
2018,10,19,02,08,5.10
2018,10,19,02,09,5.10
2018,10,19,02,10,5.10
2018,10,19,02,11,5.10
2018,10,19,02,12,5.00
2018,10,19,02,13,5.00
2018,10,19,02,14,5.00
2018,10,19,02,15,5.00
2018,10,19,02,16,5.00
2018,10,19,02,17,5.00
2018,10,19,02,18,5.00
2018,10,19,02,19,5.00
2018,10,19,02,20,5.00
2018,10,19,02,21,5.00
2018,10,19,02,22,5.00
2018,10,19,02,23,5.00
2018,10,19,02,24,5.00
2018,10,19,02,25,4.90
2018,10,19,02,26,4.90
2018,10,19,02,27,4.90
2018,10,19,02,28,4.90
2018,10,19,02,29,4.90
2018,10,19,02,30,4.90
2018,10,19,02,31,4.80
2018,10,19,02,32,4.80
2018,10,19,02,33,4.80
2018,10,19,02,34,4.80
2018,10,19,02,35,4.80
2018,10,19,02,36,4.80
2018,10,19,02,37,4.80
2018,10,19,02,38,4.80
2018,10,19,02,39,4.80
2018,10,19,02,40,4.80
2018,10,19,02,41,4.70
2018,10,19,02,42,4.70
2018,10,19,02,43,4.70
2018,10,19,02,44,4.70
2018,10,19,02,45,4.70
2018,10,19,02,46,4.70
2018,10,19,02,47,4.70
2018,10,19,02,48,4.60
2018,10,19,02,49,4.60
2018,10,19,02,50,4.60
2018,10,19,02,51,4.60
2018,10,19,02,52,4.60
2018,10,19,02,53,4.70
2018,10,19,02,54,4.70
2018,10,19,02,55,4.70
2018,10,19,02,56,4.70
2018,10,19,02,57,4.70
2018,10,19,02,58,4.70
2018,10,19,02,59,4.80
2018,10,19,03,00,4.80
2018,10,19,03,01,4.80
2018,10,19,03,02,4.80
2018,10,19,03,03,4.70
2018,10,19,03,04,4.70
2018,10,19,03,05,4.70
2018,10,19,03,06,4.70
2018,10,19,03,07,4.70
2018,10,19,03,08,4.60
2018,10,19,03,09,4.60
2018,10,19,03,10,4.60
2018,10,19,03,11,4.50
2018,10,19,03,12,4.50
2018,10,19,03,13,4.50
2018,10,19,03,14,4.50
2018,10,19,03,15,4.40
2018,10,19,03,16,4.40
2018,10,19,03,17,4.40
2018,10,19,03,18,4.40
2018,10,19,03,19,4.40
2018,10,19,03,20,4.40
2018,10,19,03,21,4.40
2018,10,19,03,22,4.40
2018,10,19,03,23,4.40
2018,10,19,03,24,4.50
2018,10,19,03,25,4.50
2018,10,19,03,26,4.50
2018,10,19,03,27,4.60
2018,10,19,03,28,4.60
2018,10,19,03,29,4.60
2018,10,19,03,30,4.50
2018,10,19,03,31,4.50
2018,10,19,03,32,4.50
2018,10,19,03,33,4.50
2018,10,19,03,34,4.50
2018,10,19,03,35,4.50
2018,10,19,03,36,4.50
2018,10,19,03,37,4.50
2018,10,19,03,38,4.50
2018,10,19,03,39,4.50
2018,10,19,03,40,4.50
2018,10,19,03,41,4.40
2018,10,19,03,42,4.40
2018,10,19,03,43,4.40
2018,10,19,03,44,4.40
2018,10,19,03,45,4.40
2018,10,19,03,46,4.40
2018,10,19,03,47,4.30
2018,10,19,03,48,4.30
2018,10,19,03,49,4.30
2018,10,19,03,50,4.30
2018,10,19,03,51,4.20
2018,10,19,03,52,4.20
2018,10,19,03,53,4.20
2018,10,19,03,54,4.10
2018,10,19,03,55,4.10
2018,10,19,03,56,4.10
2018,10,19,03,57,4.10
2018,10,19,03,58,4.00
2018,10,19,03,59,4.00
2018,10,19,04,00,4.00
2018,10,19,04,01,4.00
2018,10,19,04,02,4.00
2018,10,19,04,03,4.00
2018,10,19,04,04,4.00
2018,10,19,04,05,4.00
2018,10,19,04,06,4.00
2018,10,19,04,07,4.00
2018,10,19,04,08,3.90
2018,10,19,04,09,4.00
2018,10,19,04,10,3.90
2018,10,19,04,11,4.00
2018,10,19,04,12,4.00
2018,10,19,04,13,4.00
2018,10,19,04,14,4.00
2018,10,19,04,15,4.00
2018,10,19,04,16,4.00
2018,10,19,04,17,3.90
2018,10,19,04,18,3.90
2018,10,19,04,19,3.90
2018,10,19,04,20,3.90
2018,10,19,04,21,3.90
2018,10,19,04,22,3.90
2018,10,19,04,23,3.90
2018,10,19,04,24,3.90
2018,10,19,04,25,3.90
2018,10,19,04,26,3.90
2018,10,19,04,27,3.90
2018,10,19,04,28,3.90
2018,10,19,04,29,3.80
2018,10,19,04,30,3.80
2018,10,19,04,31,3.80
2018,10,19,04,32,3.80
2018,10,19,04,33,3.80
2018,10,19,04,34,3.80
2018,10,19,04,35,3.80
2018,10,19,04,36,3.80
2018,10,19,04,37,3.80
2018,10,19,04,38,3.80
2018,10,19,04,39,3.80
2018,10,19,04,40,3.90
2018,10,19,04,41,3.90
2018,10,19,04,42,3.90
2018,10,19,04,43,4.00
2018,10,19,04,44,4.10
2018,10,19,04,45,4.20
2018,10,19,04,46,4.40
2018,10,19,04,47,4.50
2018,10,19,04,48,4.60
2018,10,19,04,49,4.60
2018,10,19,04,50,4.70
2018,10,19,04,51,4.80
2018,10,19,04,52,4.80
2018,10,19,04,53,4.90
2018,10,19,04,54,4.90
2018,10,19,04,55,4.90
2018,10,19,04,56,4.90
2018,10,19,04,57,4.90
2018,10,19,04,58,4.90
2018,10,19,04,59,5.00
2018,10,19,05,00,5.00
2018,10,19,05,01,5.00
2018,10,19,05,02,5.00
2018,10,19,05,03,5.00
2018,10,19,05,04,5.10
2018,10,19,05,05,5.10
2018,10,19,05,06,5.10
2018,10,19,05,07,5.10
2018,10,19,05,08,5.00
2018,10,19,05,09,5.00
2018,10,19,05,10,4.90
2018,10,19,05,11,4.90
2018,10,19,05,12,4.90
2018,10,19,05,13,4.80
2018,10,19,05,14,4.80
2018,10,19,05,15,4.80
2018,10,19,05,16,4.70
2018,10,19,05,17,4.70
2018,10,19,05,18,4.70
2018,10,19,05,19,4.70
2018,10,19,05,20,4.70
2018,10,19,05,21,4.60
2018,10,19,05,22,4.60
2018,10,19,05,23,4.60
2018,10,19,05,24,4.60
2018,10,19,05,25,4.60
2018,10,19,05,26,4.60
2018,10,19,05,27,4.60
2018,10,19,05,28,4.60
2018,10,19,05,29,4.50
2018,10,19,05,30,4.50
2018,10,19,05,31,4.50
2018,10,19,05,32,4.50
2018,10,19,05,33,4.50
2018,10,19,05,34,4.50
2018,10,19,05,35,4.50
2018,10,19,05,36,4.50
2018,10,19,05,37,4.50
2018,10,19,05,38,4.50
2018,10,19,05,39,4.50
2018,10,19,05,40,4.50
2018,10,19,05,41,4.40
2018,10,19,05,42,4.40
2018,10,19,05,43,4.40
2018,10,19,05,44,4.40
2018,10,19,05,45,4.40
2018,10,19,05,46,4.40
2018,10,19,05,47,4.40
2018,10,19,05,48,4.40
2018,10,19,05,49,4.50
2018,10,19,05,50,4.50
2018,10,19,05,51,4.60
2018,10,19,05,52,4.70
2018,10,19,05,53,4.70
2018,10,19,05,54,4.70
2018,10,19,05,55,4.70
2018,10,19,05,56,4.70
2018,10,19,05,57,4.60
2018,10,19,05,58,4.60
2018,10,19,05,59,4.60
2018,10,19,06,00,4.60
2018,10,19,06,01,4.60
2018,10,19,06,02,4.60
2018,10,19,06,03,4.70
2018,10,19,06,04,4.70
2018,10,19,06,05,4.70
2018,10,19,06,06,4.70
2018,10,19,06,07,4.70
2018,10,19,06,08,4.70
2018,10,19,06,09,4.70
2018,10,19,06,10,4.70
2018,10,19,06,11,4.80
2018,10,19,06,12,4.80
2018,10,19,06,13,4.90
2018,10,19,06,14,4.90
2018,10,19,06,15,4.90
2018,10,19,06,16,4.80
2018,10,19,06,17,4.80
2018,10,19,06,18,4.80
2018,10,19,06,19,4.90
2018,10,19,06,20,5.00
2018,10,19,06,21,5.10
2018,10,19,06,22,5.10
2018,10,19,06,23,5.10
2018,10,19,06,24,5.20
2018,10,19,06,25,5.20
2018,10,19,06,26,5.20
2018,10,19,06,27,5.30
2018,10,19,06,28,5.30
2018,10,19,06,29,5.30
2018,10,19,06,30,5.30
2018,10,19,06,31,5.30
2018,10,19,06,32,5.30
2018,10,19,06,33,5.40
2018,10,19,06,34,5.40
2018,10,19,06,35,5.40
2018,10,19,06,36,5.50
2018,10,19,06,37,5.50
2018,10,19,06,38,5.50
2018,10,19,06,39,5.50
2018,10,19,06,40,5.50
2018,10,19,06,41,5.40
2018,10,19,06,42,5.30
2018,10,19,06,43,5.30
2018,10,19,06,44,5.20
2018,10,19,06,45,5.10
2018,10,19,06,46,5.00
2018,10,19,06,47,4.90
2018,10,19,06,48,4.80
2018,10,19,06,49,4.80
2018,10,19,06,50,4.70
2018,10,19,06,51,4.70
2018,10,19,06,52,4.70
2018,10,19,06,53,4.60
2018,10,19,06,54,4.60
2018,10,19,06,55,4.60
2018,10,19,06,56,4.50
2018,10,19,06,57,4.50
2018,10,19,06,58,4.40
2018,10,19,06,59,4.40
2018,10,19,07,00,4.40
2018,10,19,07,01,4.30
2018,10,19,07,02,4.30
2018,10,19,07,03,4.30
2018,10,19,07,04,4.30
2018,10,19,07,05,4.30
2018,10,19,07,06,4.30
2018,10,19,07,07,4.30
2018,10,19,07,08,4.30
2018,10,19,07,09,4.30
2018,10,19,07,10,4.30
2018,10,19,07,11,4.30
2018,10,19,07,12,4.30
2018,10,19,07,13,4.30
2018,10,19,07,14,4.40
2018,10,19,07,15,4.40
2018,10,19,07,16,4.50
2018,10,19,07,17,4.60
2018,10,19,07,18,4.60
2018,10,19,07,19,4.60
2018,10,19,07,20,4.60
2018,10,19,07,21,4.50
2018,10,19,07,22,4.50
2018,10,19,07,23,4.40
2018,10,19,07,24,4.40
2018,10,19,07,25,4.30
2018,10,19,07,26,4.30
2018,10,19,07,27,4.20
2018,10,19,07,28,4.20
2018,10,19,07,29,4.20
2018,10,19,07,30,4.20
2018,10,19,07,31,4.10
2018,10,19,07,32,4.10
2018,10,19,07,33,4.10
2018,10,19,07,34,4.10
2018,10,19,07,35,4.10
2018,10,19,07,36,4.10
2018,10,19,07,37,4.10
2018,10,19,07,38,4.00
2018,10,19,07,39,3.90
2018,10,19,07,40,3.90
2018,10,19,07,41,3.90
2018,10,19,07,42,3.90
2018,10,19,07,43,3.80
2018,10,19,07,44,3.80
2018,10,19,07,45,3.80
2018,10,19,07,46,3.80
2018,10,19,07,47,3.80
2018,10,19,07,48,3.70
2018,10,19,07,49,3.70
2018,10,19,07,50,3.70
2018,10,19,07,51,3.70
2018,10,19,07,52,3.70
2018,10,19,07,53,3.70
2018,10,19,07,54,3.70
2018,10,19,07,55,3.70
2018,10,19,07,56,3.70
2018,10,19,07,57,3.70
2018,10,19,07,58,3.70
2018,10,19,07,59,3.70
2018,10,19,08,00,3.70
2018,10,19,08,01,3.70
2018,10,19,08,02,3.70
2018,10,19,08,03,3.70
2018,10,19,08,04,3.70
2018,10,19,08,05,3.80
2018,10,19,08,06,3.80
2018,10,19,08,07,3.80
2018,10,19,08,08,3.80
2018,10,19,08,09,3.80
2018,10,19,08,10,3.70
2018,10,19,08,11,3.70
2018,10,19,08,12,3.70
2018,10,19,08,13,3.70
2018,10,19,08,14,3.70
2018,10,19,08,15,3.70
2018,10,19,08,16,3.70
2018,10,19,08,17,3.70
2018,10,19,08,18,3.70
2018,10,19,08,19,3.70
2018,10,19,08,20,3.70
2018,10,19,08,21,3.70
2018,10,19,08,22,3.70
2018,10,19,08,23,3.70
2018,10,19,08,24,3.70
2018,10,19,08,25,3.70
2018,10,19,08,26,3.70
2018,10,19,08,27,3.70
2018,10,19,08,28,3.70
2018,10,19,08,29,3.70
2018,10,19,08,30,3.70
2018,10,19,08,31,3.70
2018,10,19,08,32,3.70
2018,10,19,08,33,3.80
2018,10,19,08,34,3.80
2018,10,19,08,35,3.80
2018,10,19,08,36,3.90
2018,10,19,08,37,3.90
2018,10,19,08,38,4.00
2018,10,19,08,39,4.10
2018,10,19,08,40,4.10
2018,10,19,08,41,4.20
2018,10,19,08,42,4.30
2018,10,19,08,43,4.40
2018,10,19,08,44,4.50
2018,10,19,08,45,4.70
2018,10,19,08,46,4.80
2018,10,19,08,47,4.90
2018,10,19,08,48,5.00
2018,10,19,08,49,5.00
2018,10,19,08,50,5.10
2018,10,19,08,51,5.10
2018,10,19,08,52,5.10
2018,10,19,08,53,5.10
2018,10,19,08,54,5.20
2018,10,19,08,55,5.20
2018,10,19,08,56,5.20
2018,10,19,08,57,5.20
2018,10,19,08,58,5.20
2018,10,19,08,59,5.20
2018,10,19,09,00,5.20
2018,10,19,09,01,5.20
2018,10,19,09,02,5.20
2018,10,19,09,03,5.20
2018,10,19,09,04,5.20
2018,10,19,09,05,5.20
2018,10,19,09,06,5.20
2018,10,19,09,07,5.20
2018,10,19,09,08,5.30
2018,10,19,09,09,5.40
2018,10,19,09,10,5.40
2018,10,19,09,11,5.40
2018,10,19,09,12,5.40
2018,10,19,09,13,5.50
2018,10,19,09,14,5.50
2018,10,19,09,15,5.60
2018,10,19,09,16,5.60
2018,10,19,09,17,5.60
2018,10,19,09,18,5.70
2018,10,19,09,19,5.70
2018,10,19,09,20,5.70
2018,10,19,09,21,5.80
2018,10,19,09,22,5.80
2018,10,19,09,23,5.90
2018,10,19,09,24,6.00
2018,10,19,09,25,6.00
2018,10,19,09,26,6.10
2018,10,19,09,27,6.20
2018,10,19,09,28,6.30
2018,10,19,09,29,6.50
2018,10,19,09,30,6.60
2018,10,19,09,31,6.80
2018,10,19,09,32,7.00
2018,10,19,09,33,7.10
2018,10,19,09,34,7.20
2018,10,19,09,35,7.30
2018,10,19,09,36,7.40
2018,10,19,09,37,7.40
2018,10,19,09,38,7.50
2018,10,19,09,39,7.60
2018,10,19,09,40,7.60
2018,10,19,09,41,7.70
2018,10,19,09,42,7.80
2018,10,19,09,43,7.80
2018,10,19,09,44,7.80
2018,10,19,09,45,7.90
2018,10,19,09,46,8.00
2018,10,19,09,47,8.10
2018,10,19,09,48,8.20
2018,10,19,09,49,8.30
2018,10,19,09,50,8.30
2018,10,19,09,51,8.30
2018,10,19,09,52,8.30
2018,10,19,09,53,8.40
2018,10,19,09,54,8.40
2018,10,19,09,55,8.50
2018,10,19,09,56,8.50
2018,10,19,09,57,8.60
2018,10,19,09,58,8.60
2018,10,19,09,59,8.60
2018,10,19,10,00,8.70
2018,10,19,10,01,8.70
2018,10,19,10,02,8.80
2018,10,19,10,03,8.80
2018,10,19,10,04,8.80
2018,10,19,10,05,8.90
2018,10,19,10,06,9.00
2018,10,19,10,07,9.00
2018,10,19,10,08,9.10
2018,10,19,10,09,9.10
2018,10,19,10,10,9.20
2018,10,19,10,11,9.30
2018,10,19,10,12,9.40
2018,10,19,10,13,9.40
2018,10,19,10,14,9.50
2018,10,19,10,15,9.50
2018,10,19,10,16,9.60
2018,10,19,10,17,9.60
2018,10,19,10,18,9.60
2018,10,19,10,19,9.60
2018,10,19,10,20,9.70
2018,10,19,10,21,9.80
2018,10,19,10,22,9.80
2018,10,19,10,23,9.80
2018,10,19,10,24,9.80
2018,10,19,10,25,9.80
2018,10,19,10,26,9.90
2018,10,19,10,27,9.90
2018,10,19,10,28,9.90
2018,10,19,10,29,10.00
2018,10,19,10,30,10.00
2018,10,19,10,31,10.00
2018,10,19,10,32,10.10
2018,10,19,10,33,10.10
2018,10,19,10,34,10.20
2018,10,19,10,35,10.20
2018,10,19,10,36,10.30
2018,10,19,10,37,10.50
2018,10,19,10,38,10.60
2018,10,19,10,39,10.70
2018,10,19,10,40,10.80
2018,10,19,10,41,10.90
2018,10,19,10,42,11.00
2018,10,19,10,43,11.10
2018,10,19,10,44,11.20
2018,10,19,10,45,11.20
2018,10,19,10,46,11.30
2018,10,19,10,47,11.30
2018,10,19,10,48,11.30
2018,10,19,10,49,11.40
2018,10,19,10,50,11.40
2018,10,19,10,51,11.50
2018,10,19,10,52,11.60
2018,10,19,10,53,11.60
2018,10,19,10,54,11.70
2018,10,19,10,55,11.70
2018,10,19,10,56,11.80
2018,10,19,10,57,11.80
2018,10,19,10,58,11.90
2018,10,19,10,59,11.90
2018,10,19,11,00,11.90
2018,10,19,11,01,11.90
2018,10,19,11,02,11.90
2018,10,19,11,03,12.00
2018,10,19,11,04,12.10
2018,10,19,11,05,12.20
2018,10,19,11,06,12.20
2018,10,19,11,07,12.20
2018,10,19,11,08,12.20
2018,10,19,11,09,12.20
2018,10,19,11,10,12.30
2018,10,19,11,11,12.30
2018,10,19,11,12,12.30
2018,10,19,11,13,12.30
2018,10,19,11,14,12.30
2018,10,19,11,15,12.20
2018,10,19,11,16,12.20
2018,10,19,11,17,12.20
2018,10,19,11,18,12.20
2018,10,19,11,19,12.20
2018,10,19,11,20,12.20
2018,10,19,11,21,12.10
2018,10,19,11,22,12.10
2018,10,19,11,23,12.10
2018,10,19,11,24,12.20
2018,10,19,11,25,12.20
2018,10,19,11,26,12.20
2018,10,19,11,27,12.20
2018,10,19,11,28,12.20
2018,10,19,11,29,12.10
2018,10,19,11,30,12.10
2018,10,19,11,31,12.10
2018,10,19,11,32,12.00
2018,10,19,11,33,11.90
2018,10,19,11,34,11.90
2018,10,19,11,35,11.90
2018,10,19,11,36,11.80
2018,10,19,11,37,11.80
2018,10,19,11,38,11.80
2018,10,19,11,39,11.70
2018,10,19,11,40,11.70
2018,10,19,11,41,11.60
2018,10,19,11,42,11.60
2018,10,19,11,43,11.50
2018,10,19,11,44,11.40
2018,10,19,11,45,11.40
2018,10,19,11,46,11.40
2018,10,19,11,47,11.40
2018,10,19,11,48,11.40
2018,10,19,11,49,11.50
2018,10,19,11,50,11.50
2018,10,19,11,51,11.60
2018,10,19,11,52,11.50
2018,10,19,11,53,11.50
2018,10,19,11,54,11.50
2018,10,19,11,55,11.50
2018,10,19,11,56,11.50
2018,10,19,11,57,11.50
2018,10,19,11,58,11.50
2018,10,19,11,59,11.50
2018,10,19,12,00,11.40
2018,10,19,12,01,11.30
2018,10,19,12,02,11.20
2018,10,19,12,03,11.20
2018,10,19,12,04,11.10
2018,10,19,12,05,11.10
2018,10,19,12,06,11.10
2018,10,19,12,07,11.10
2018,10,19,12,08,11.10
2018,10,19,12,09,11.10
2018,10,19,12,10,11.10
2018,10,19,12,11,11.10
2018,10,19,12,12,11.20
2018,10,19,12,13,11.20
2018,10,19,12,14,11.30
2018,10,19,12,15,11.30
2018,10,19,12,16,11.30
2018,10,19,12,17,11.30
2018,10,19,12,18,11.40
2018,10,19,12,19,11.40
2018,10,19,12,20,11.40
2018,10,19,12,21,11.50
2018,10,19,12,22,11.50
2018,10,19,12,23,11.40
2018,10,19,12,24,11.40
2018,10,19,12,25,11.40
2018,10,19,12,26,11.40
2018,10,19,12,27,11.40
2018,10,19,12,28,11.40
2018,10,19,12,29,11.40
2018,10,19,12,30,11.40
2018,10,19,12,31,11.50
2018,10,19,12,32,11.60
2018,10,19,12,33,11.60
2018,10,19,12,34,11.60
2018,10,19,12,35,11.70
2018,10,19,12,36,11.70
2018,10,19,12,37,11.60
2018,10,19,12,38,11.60
2018,10,19,12,39,11.60
2018,10,19,12,40,11.60
2018,10,19,12,41,11.60
2018,10,19,12,42,11.60
2018,10,19,12,43,11.60
2018,10,19,12,44,11.60
2018,10,19,12,45,11.60
2018,10,19,12,46,11.60
2018,10,19,12,47,11.60
2018,10,19,12,48,11.60
2018,10,19,12,49,11.60
2018,10,19,12,50,11.60
2018,10,19,12,51,11.60
2018,10,19,12,52,11.60
2018,10,19,12,53,11.60
2018,10,19,12,54,11.70
2018,10,19,12,55,11.70
2018,10,19,12,56,11.80
2018,10,19,12,57,11.80
2018,10,19,12,58,11.80
2018,10,19,12,59,11.80
2018,10,19,13,00,11.90
2018,10,19,13,01,11.90
2018,10,19,13,02,12.00
2018,10,19,13,03,12.00
2018,10,19,13,04,12.10
2018,10,19,13,05,12.10
2018,10,19,13,06,12.20
2018,10,19,13,07,12.20
2018,10,19,13,08,12.30
2018,10,19,13,09,12.30
2018,10,19,13,10,12.30
2018,10,19,13,11,12.30
2018,10,19,13,12,12.30
2018,10,19,13,13,12.30
2018,10,19,13,14,12.30
2018,10,19,13,15,12.30
2018,10,19,13,16,12.30
2018,10,19,13,17,12.30
2018,10,19,13,18,12.40
2018,10,19,13,19,12.50
2018,10,19,13,20,12.50
2018,10,19,13,21,12.60
2018,10,19,13,22,12.70
2018,10,19,13,23,12.70
2018,10,19,13,24,12.70
2018,10,19,13,25,12.70
2018,10,19,13,26,12.80
2018,10,19,13,27,12.80
2018,10,19,13,28,12.80
2018,10,19,13,29,12.90
2018,10,19,13,30,12.90
2018,10,19,13,31,13.00
2018,10,19,13,32,13.00
2018,10,19,13,33,13.10
2018,10,19,13,34,13.10
2018,10,19,13,35,13.10
2018,10,19,13,36,13.20
2018,10,19,13,37,13.20
2018,10,19,13,38,13.20
2018,10,19,13,39,13.30
2018,10,19,13,40,13.30
2018,10,19,13,41,13.30
2018,10,19,13,42,13.20
2018,10,19,13,43,13.20
2018,10,19,13,44,13.20
2018,10,19,13,45,13.20
2018,10,19,13,46,13.30
2018,10,19,13,47,13.30
2018,10,19,13,48,13.40
2018,10,19,13,49,13.50
2018,10,19,13,50,13.60
2018,10,19,13,51,13.60
2018,10,19,13,52,13.50
2018,10,19,13,53,13.50
2018,10,19,13,54,13.50
2018,10,19,13,55,13.50
2018,10,19,13,56,13.50
2018,10,19,13,57,13.40
2018,10,19,13,58,13.40
2018,10,19,13,59,13.40
2018,10,19,14,00,13.40
2018,10,19,14,01,13.40
2018,10,19,14,02,13.40
2018,10,19,14,03,13.50
2018,10,19,14,04,13.50
2018,10,19,14,05,13.60
2018,10,19,14,06,13.70
2018,10,19,14,07,13.70
2018,10,19,14,08,13.80
2018,10,19,14,09,13.90
2018,10,19,14,10,14.00
2018,10,19,14,11,14.00
2018,10,19,14,12,14.10
2018,10,19,14,13,14.10
2018,10,19,14,14,14.20
2018,10,19,14,15,14.20
2018,10,19,14,16,14.30
2018,10,19,14,17,14.30
2018,10,19,14,18,14.40
2018,10,19,14,19,14.50
2018,10,19,14,20,14.60
2018,10,19,14,21,14.60
2018,10,19,14,22,14.60
2018,10,19,14,23,14.70
2018,10,19,14,24,14.80
2018,10,19,14,25,14.80
2018,10,19,14,26,14.80
2018,10,19,14,27,14.80
2018,10,19,14,28,14.80
2018,10,19,14,29,14.90
2018,10,19,14,30,14.90
2018,10,19,14,31,14.90
2018,10,19,14,32,14.90
2018,10,19,14,33,15.00
2018,10,19,14,34,15.00
2018,10,19,14,35,15.00
2018,10,19,14,36,15.00
2018,10,19,14,37,15.00
2018,10,19,14,38,15.00
2018,10,19,14,39,15.20
2018,10,19,14,40,15.30
2018,10,19,14,41,15.50
2018,10,19,14,42,15.60
2018,10,19,14,43,15.70
2018,10,19,14,44,15.80
2018,10,19,14,45,15.90
2018,10,19,14,46,16.10
2018,10,19,14,47,16.20
2018,10,19,14,48,16.30
2018,10,19,14,49,16.40
2018,10,19,14,50,16.50
2018,10,19,14,51,16.60
2018,10,19,14,52,16.70
2018,10,19,14,53,16.70
2018,10,19,14,54,16.80
2018,10,19,14,55,16.80
2018,10,19,14,56,16.80
2018,10,19,14,57,16.90
2018,10,19,14,58,16.90
2018,10,19,14,59,16.90
2018,10,19,15,00,17.00
2018,10,19,15,01,17.00
2018,10,19,15,02,17.00
2018,10,19,15,03,17.10
2018,10,19,15,04,17.10
2018,10,19,15,05,17.10
2018,10,19,15,06,17.10
2018,10,19,15,07,17.10
2018,10,19,15,08,17.20
2018,10,19,15,09,17.20
2018,10,19,15,10,17.30
2018,10,19,15,11,17.30
2018,10,19,15,12,17.30
2018,10,19,15,13,17.30
2018,10,19,15,14,17.30
2018,10,19,15,15,17.30
2018,10,19,15,16,17.20
2018,10,19,15,17,17.10
2018,10,19,15,18,17.10
2018,10,19,15,19,17.00
2018,10,19,15,20,17.00
2018,10,19,15,21,16.90
2018,10,19,15,22,16.90
2018,10,19,15,23,16.90
2018,10,19,15,24,17.00
2018,10,19,15,25,17.00
2018,10,19,15,26,17.10
2018,10,19,15,27,17.10
2018,10,19,15,28,17.10
2018,10,19,15,29,17.10
2018,10,19,15,30,17.10
2018,10,19,15,31,17.10
2018,10,19,15,32,17.10
2018,10,19,15,33,17.10
2018,10,19,15,34,17.10
2018,10,19,15,35,17.20
2018,10,19,15,36,17.20
2018,10,19,15,37,17.20
2018,10,19,15,38,17.30
2018,10,19,15,39,17.30
2018,10,19,15,40,17.30
2018,10,19,15,41,17.20
2018,10,19,15,42,17.00
2018,10,19,15,43,16.80
2018,10,19,15,44,16.70
2018,10,19,15,45,16.60
2018,10,19,15,46,16.40
2018,10,19,15,47,16.30
2018,10,19,15,48,16.20
2018,10,19,15,49,16.10
2018,10,19,15,50,16.00
2018,10,19,15,51,15.90
2018,10,19,15,52,15.90
2018,10,19,15,53,15.80
2018,10,19,15,54,15.70
2018,10,19,15,55,15.60
2018,10,19,15,56,15.40
2018,10,19,15,57,15.20
2018,10,19,15,58,15.00
2018,10,19,15,59,15.00
2018,10,19,16,00,14.80
2018,10,19,16,01,14.70
2018,10,19,16,02,14.60
2018,10,19,16,03,14.50
2018,10,19,16,04,14.50
2018,10,19,16,05,14.40
2018,10,19,16,06,14.40
2018,10,19,16,07,14.40
2018,10,19,16,08,14.40
2018,10,19,16,09,14.40
2018,10,19,16,10,14.50
2018,10,19,16,11,14.50
2018,10,19,16,12,14.50
2018,10,19,16,13,14.60
2018,10,19,16,14,14.60
2018,10,19,16,15,14.60
2018,10,19,16,16,14.60
2018,10,19,16,17,14.60
2018,10,19,16,18,14.60
2018,10,19,16,19,14.60
2018,10,19,16,20,14.70
2018,10,19,16,21,14.70
2018,10,19,16,22,14.80
2018,10,19,16,23,14.80
2018,10,19,16,24,14.80
2018,10,19,16,25,14.80
2018,10,19,16,26,14.80
2018,10,19,16,27,14.80
2018,10,19,16,28,14.80
2018,10,19,16,29,14.80
2018,10,19,16,30,14.90
2018,10,19,16,31,14.90
2018,10,19,16,32,14.90
2018,10,19,16,33,14.90
2018,10,19,16,34,14.90
2018,10,19,16,35,14.80
2018,10,19,16,36,14.70
2018,10,19,16,37,14.60
2018,10,19,16,38,14.60
2018,10,19,16,39,14.50
2018,10,19,16,40,14.40
2018,10,19,16,41,14.40
2018,10,19,16,42,14.30
2018,10,19,16,43,14.30
2018,10,19,16,44,14.30
2018,10,19,16,45,14.20
2018,10,19,16,46,14.20
2018,10,19,16,47,14.20
2018,10,19,16,48,14.20
2018,10,19,16,49,14.10
2018,10,19,16,50,14.10
2018,10,19,16,51,14.10
2018,10,19,16,52,14.10
2018,10,19,16,53,14.20
2018,10,19,16,54,14.20
2018,10,19,16,55,14.20
2018,10,19,16,56,14.20
2018,10,19,16,57,14.20
2018,10,19,16,58,14.20
2018,10,19,16,59,14.20
2018,10,19,17,00,14.20
2018,10,19,17,01,14.20
2018,10,19,17,02,14.20
2018,10,19,17,03,14.30
2018,10,19,17,04,14.30
2018,10,19,17,05,14.30
2018,10,19,17,06,14.20
2018,10,19,17,07,14.20
2018,10,19,17,08,14.20
2018,10,19,17,09,14.20
2018,10,19,17,10,14.20
2018,10,19,17,11,14.20
2018,10,19,17,12,14.20
2018,10,19,17,13,14.20
2018,10,19,17,14,14.20
2018,10,19,17,15,14.20
2018,10,19,17,16,14.20
2018,10,19,17,17,14.20
2018,10,19,17,18,14.20
2018,10,19,17,19,14.20
2018,10,19,17,20,14.10
2018,10,19,17,21,14.10
2018,10,19,17,22,14.10
2018,10,19,17,23,14.10
2018,10,19,17,24,14.10
2018,10,19,17,25,14.10
2018,10,19,17,26,14.10
2018,10,19,17,27,14.10
2018,10,19,17,28,14.10
2018,10,19,17,29,14.10
2018,10,19,17,30,14.10
2018,10,19,17,31,14.10
2018,10,19,17,32,14.10
2018,10,19,17,33,14.10
2018,10,19,17,34,14.10
2018,10,19,17,35,14.10
2018,10,19,17,36,14.10
2018,10,19,17,37,14.00
2018,10,19,17,38,14.00
2018,10,19,17,39,13.90
2018,10,19,17,40,13.90
2018,10,19,17,41,13.80
2018,10,19,17,42,13.80
2018,10,19,17,43,13.70
2018,10,19,17,44,13.70
2018,10,19,17,45,13.60
2018,10,19,17,46,13.60